[Iaude] MPEC C81: 2024 CM1 [a=2.05,e=0.41,i=14.2,H=21.0]

mpec at cfa.harvard.edu mpec at cfa.harvard.edu
Wed Feb 7 23:47:58 EST 2024


M.P.E.C. 2024-C81                              Issued 2024 February 8, 04:46 UT

     The Minor Planet Electronic Circulars contain information on unusual
         minor planets, routine data on comets and natural satellites,
         and occasional editorial announcements.  They are published
    on behalf of Division F of the International Astronomical Union by the
          Minor Planet Center, Smithsonian Astrophysical Observatory,
                          Cambridge, MA 02138, U.S.A.
			  
             Prepared using the Tamkin Foundation Computer Network

                              MPC at CFA.HARVARD.EDU
            URL https://www.minorplanetcenter.net/    ISSN 1523-6714

                                    2024 CM1                                    


Observations:
     K24C01M* C2024 02 04.40596410 05 25.797+21 44 58.32         21.47wXEC081F52
     K24C01M  C2024 02 04.41824510 05 25.015+21 45 18.03         21.50wXEC081F52
     K24C01M  C2024 02 04.43058210 05 24.228+21 45 37.70         21.09wXEC081F52
     K24C01M KC2024 02 05.17769410 04 41.00 +22 05 15.7          20.9 GXEC081858
     K24C01M KC2024 02 05.19153410 04 40.14 +22 05 38.2          20.9 GXEC081858
     K24C01M KC2024 02 05.24748910 04 36.714+22 07 07.32         20.99GVEC081I52
     K24C01M KC2024 02 05.24933410 04 36.606+22 07 10.20         21.26GVEC081I52
     K24C01M KC2024 02 05.25422110 04 35.92 +22 07 17.3          21.0 GVEC081H21
     K24C01M KC2024 02 05.25608910 04 36.160+22 07 21.11         20.87GVEC081I52
     K24C01M KC2024 02 05.26260910 04 35.37 +22 07 30.5          21.2 GVEC081H21
     K24C01M KC2024 02 05.26350610 04 35.684+22 07 33.20         20.75GVEC081I52
     K24C01M KC2024 02 05.26689710 04 35.09 +22 07 37.2          21.5 GVEC081H21
     K24C01M  C2024 02 08.17606610 01 41.18 +23 21 42.4                WEC081X09

Observer details:
858 Tebbutt Observatory, Edgewood.  Observer F. B. Zoltowski.  0.51-m f/8.1
    Schmidt-Cassegrain + CCD.
F52 Pan-STARRS 2, Haleakala.  Observers J. Herman, T. Lowe, P. Minguez, A.
    Schultz, I. Smith.  Measurers K. Chambers, T. de Boer, J. Fairlamb, H.
    Gao, M. Huber, C.-C. Lin, E. Magnier, Y. Ramanjooloo, R. Wainscoat, R.
    Weryk.  1.8-m Ritchey-Chretien + CCD.
H21 Astronomical Research Observatory, Westfield.  Observer R. Holmes.
    Measurers T. Linder, R. Holmes, L. Horn.  0.76-m f/3.0 astrograph + CCD.
I52 Steward Observatory, Mt. Lemmon Station.  Observer H. Groeller.  Measurers
    E. C. Beshore, D. Fay, J. B. Fazekas, D. C. Fuls, A. R. Gibbs, A. D.
    Grauer, H. Groeller, J. K. Hogan, R. A. Kowalski, S. M. Larson, G. J.
    Leonard, D. Rankin, R. L. Seaman, F. C. Shelly, K. W. Wierzchos.  1.0-m
    prime focus + CCD.
X09 Deep Random Survey, Rio Hurtado.  Observers A. Schnabel, D. Ruhela.
    Measurer S. Deen.  0.43-m reflector + CMOS.

Orbital elements:
2024 CM1                                                 Earth MOID = 0.2989 AU
Epoch 2023 Sept. 13.0 TT = JDT 2460200.5                MPC                     
M 344.58461              (2000.0)            P               Q                  
n   0.33619766     Peri.  300.41089     +0.39257740     -0.89768038             
a   2.0483599      Node   125.13139     +0.90525778     +0.33870963             
e   0.4102896      Incl.   14.16469     +0.16245409     +0.28186118             
P   2.93           H   21.08          G   0.15           U   9                  
Residuals in seconds of arc
240204 F52  0.0   0.2+    240205 I52  0.1+  0.2-    240205 I52  0.0   0.2+
240204 F52  0.1+  0.1+    240205 I52  0.2+  0.3-    240205 H21  0.1-  0.0
240204 F52  0.2+  0.1-    240205 H21  0.1+  0.1+    240208 X09  0.3+  0.1+
240205 858  0.2-  0.2-    240205 I52  0.0   0.1-
240205 858  0.3-  0.2+    240205 H21  0.1-  0.1+

Ephemeris:
2024 CM1                 a,e,i = 2.05, 0.41, 14                  q = 1.2079
Date    TT    R. A. (2000) Decl.     Delta      r    Elong.  Phase     V
2024 01 09    10 18 24.5 +09 04 03   0.5166  1.3959   134.7    30.1    21.7
...
2024 01 24    10 14 44.6 +16 17 55   0.5210  1.4676   153.0    17.8    21.4
...
2024 02 01    10 08 36.2 +20 11 39   0.5393  1.5080   162.3    11.4    21.3
...
2024 02 07    10 02 51.9 +22 52 14   0.5616  1.5391   167.4     8.0    21.3
2024 02 08    10 01 51.5 +23 17 09   0.5660  1.5443   167.9     7.7    21.3
2024 02 09    10 00 50.8 +23 41 29   0.5707  1.5496   168.2     7.5    21.4
...
2024 02 15    09 54 48.1 +25 53 38   0.6031  1.5812   167.1     8.0    21.5
...
2024 02 23    09 47 32.6 +28 09 48   0.6580  1.6240   160.3    11.8    21.9
...
2024 03 09    09 39 14.7 +30 26 56   0.7928  1.7049   145.2    19.4    22.7

A. U. Tomatic                (C) Copyright 2024 MPC           M.P.E.C. 2024-C81





More information about the Iaude mailing list